Time,TemperatureF,DewpointF,PressureIn,WindDirection,WindDirectionDegrees,WindSpeedMPH,WindSpeedGustMPH,Humidity,HourlyPrecipIn,Conditions,Clouds,dailyrainin,SoftwareType,DateUTC
2013-04-30 00:00:00,32.0,-99.9,-100.00,North,-999,-999.0,-999.0,-999,-99.99,,,0.03,,2013-04-30 07:00:00,
2013-04-30 00:52:00,32.0,-99.9,-100.00,North,-999,-999.0,-999.0,-999,-99.99,,,0.03,,2013-04-30 07:52:00,
2013-04-30 01:00:00,32.0,-99.9,-100.00,North,-999,-999.0,-999.0,-999,-99.99,,,0.03,,2013-04-30 08:00:00,
2013-04-30 01:52:00,32.0,-99.9,-100.00,North,-999,-999.0,-999.0,-999,-99.99,,,0.03,,2013-04-30 08:52:00,
2013-04-30 02:00:00,32.0,-99.9,-100.00,North,-999,-999.0,-999.0,-999,-99.99,,,0.02,,2013-04-30 09:00:00,
2013-04-30 03:00:00,32.0,-99.9,-100.00,North,-999,-999.0,-999.0,-999,-99.99,,,0.02,,2013-04-30 10:00:00,
2013-04-30 06:00:00,32.0,-99.9,-100.00,North,-999,-999.0,-999.0,-999,-99.99,,,0.01,,2013-04-30 13:00:00,
2013-04-30 07:00:00,32.0,-99.9,-100.00,North,-999,-999.0,-999.0,-999,-99.99,,,-99.99,,2013-04-30 14:00:00,
2013-04-30 07:52:00,32.0,-99.9,-100.00,North,-999,-999.0,-999.0,-999,-99.99,,,-99.99,,2013-04-30 14:52:00,
2013-04-30 08:00:00,34.0,-99.9,-100.00,North,-999,-999.0,-999.0,-999,-99.99,,,0.01,,2013-04-30 15:00:00,
2013-04-30 08:53:00,34.0,-99.9,-100.00,North,-999,-999.0,-999.0,-999,-99.99,,,0.01,,2013-04-30 15:53:00,
2013-04-30 09:00:00,34.0,-99.9,-100.00,North,-999,-999.0,-999.0,-999,-99.99,,,0.01,,2013-04-30 16:00:00,
2013-04-30 09:53:00,34.0,-99.9,-100.00,North,-999,-999.0,-999.0,-999,-99.99,,,0.01,,2013-04-30 16:53:00,
2013-04-30 10:00:00,36.0,-99.9,-100.00,North,-999,-999.0,-999.0,-999,-99.99,,,0.00,,2013-04-30 17:00:00,
2013-04-30 11:00:00,38.0,-99.9,-100.00,North,-999,-999.0,-999.0,-999,-99.99,,,0.01,,2013-04-30 18:00:00,
2013-04-30 12:00:00,39.0,-99.9,-100.00,North,-999,-999.0,-999.0,-999,-99.99,,,0.01,,2013-04-30 19:00:00,
2013-04-30 14:00:00,42.0,-99.9,-100.00,North,-999,-999.0,-999.0,-999,-99.99,,,0.01,,2013-04-30 21:00:00,
2013-04-30 15:00:00,42.0,-99.9,-100.00,North,-999,-999.0,-999.0,-999,-99.99,,,0.01,,2013-04-30 22:00:00,
2013-04-30 16:00:00,41.0,-99.9,-100.00,North,-999,-999.0,-999.0,-999,-99.99,,,0.01,,2013-04-30 23:00:00,
2013-04-30 17:00:00,41.0,-99.9,-100.00,North,-999,-999.0,-999.0,-999,-99.99,,,0.01,,2013-05-01 00:00:00,
2013-04-30 17:52:00,41.0,-99.9,-100.00,North,-999,-999.0,-999.0,-999,-99.99,,,0.01,,2013-05-01 00:52:00,
2013-04-30 18:00:00,40.0,-99.9,-100.00,North,-999,-999.0,-999.0,-999,-99.99,,,0.01,,2013-05-01 01:00:00,
2013-04-30 19:00:00,39.0,-99.9,-100.00,North,-999,-999.0,-999.0,-999,-99.99,,,0.00,,2013-05-01 02:00:00,
2013-04-30 20:00:00,37.0,-99.9,-100.00,North,-999,-999.0,-999.0,-999,-99.99,,,-99.99,,2013-05-01 03:00:00,
2013-04-30 22:00:00,34.0,-99.9,-100.00,North,-999,-999.0,-999.0,-999,-99.99,,,0.00,,2013-05-01 05:00:00,
2013-04-30 22:53:00,34.0,-99.9,-100.00,North,-999,-999.0,-999.0,-999,-99.99,,,0.00,,2013-05-01 05:53:00,
2013-04-30 23:00:00,31.0,-99.9,-100.00,North,-999,-999.0,-999.0,-999,-99.99,,,0.00,,2013-05-01 06:00:00,